Flag Weather past 2 weeks in Johor Bahru, Malaysia

Now
81 °F

Passing clouds.


Feels Like: 87 °F
Forecast: 76 / 88 °F
Wind: No wind

Location: Singapore / Paya Lebar

Current Time: Nov 28, 2014 at 5:17:26 AM

Latest Report: Nov 28, 2014 at 5:00 AM


Visibility: N/A

Pressure: 29.74 "Hg

Humidity: 89%

Dew point: 77 °F

Location of Johor BahruLocation

Historic Weather in Johor Bahru — Graph

°F

Johor Bahru temperature yesterday

Maximum temperature yesterday: 90 °F (at 1:00 PM)
Minimum temperature yesterday: 79 °F (at 5:00 AM)
Average temperature yesterday: 84 °F

Past Weeks' High & Low Weather Summary

 TemperatureHumidityPressure
High93 °F (Nov 13, 2:00 PM)94% (Nov 13, 6:00 PM)29.89 "Hg (Nov 13, 6:00 PM)
Low77 °F (Nov 13, 6:00 PM)52% (Nov 13, 1:00 PM)29.68 "Hg (Nov 25, 4:00 PM)
Average83 °F80%29.79 "Hg
* Reported Nov 12 11:00 PM — Nov 27 11:00 PM, Johor Bahru, Weather by CustomWeather, © 2014

Note: Actual official high and low records may vary slightly from our data, if they occured in-between our weather recording intervals... More about our weather records

Advertising

Johor Bahru weather history for previous 24 hours

 ConditionsComfort  
Time TempWeatherWind HumidityBarometerVisibility
11:00 PM
Nov 27
82 °FPassing clouds.3 mph84%29.80 "HgN/A
10:00 PM82 °FPassing clouds.5 mph89%29.80 "HgN/A
9:00 PM82 °FSprinkles. Passing clouds.2 mph79%29.77 "HgN/A
8:00 PM82 °FPassing clouds.3 mph79%29.77 "HgN/A
7:00 PM84 °FPassing clouds.5 mph79%29.77 "HgN/A
6:00 PM86 °FThundershowers. Scattered clouds.5 mph75%29.74 "HgN/A
5:00 PM86 °FScattered showers. Scattered clouds.5 mph70%29.71 "HgN/A
4:00 PM86 °FScattered showers. Partly sunny.6 mph75%29.71 "HgN/A
3:00 PM86 °FScattered showers. Partly sunny.3 mph75%29.74 "HgN/A
2:00 PM88 °FBroken clouds.5 mph70%29.77 "HgN/A
1:00 PM90 °FPartly sunny.5 mph63%29.77 "HgN/A
12:00 PM88 °FPartly sunny.5 mph66%29.80 "HgN/A
11:00 AM86 °FPartly sunny.3 mph70%29.83 "HgN/A
10:00 AM84 °FBroken clouds.1 mph79%29.83 "Hg5 mi
9:00 AM81 °FBroken clouds.1 mph89%29.80 "Hg5 mi
8:00 AM79 °FBroken clouds.No wind89%29.80 "Hg5 mi
7:00 AM79 °FPartly sunny.No wind89%29.77 "Hg5 mi
6:00 AM79 °FPassing clouds.No wind89%29.74 "HgN/A
5:00 AM79 °FPassing clouds.No wind89%29.74 "HgN/A
Weather by CustomWeather, © 2014

See weather overviewHow to use our weather pages